Time,TemperatureF,DewpointF,PressureIn,WindDirection,WindDirectionDegrees,WindSpeedMPH,WindSpeedGustMPH,Humidity,HourlyPrecipIn,Conditions,Clouds,dailyrainin,SoftwareType,DateUTC
2013-05-25 00:10:00,44.4,44.1,30.05,SW,225,0.0,-999.0,99,-99.99,,,0.00,Acu-Link.com,2013-05-25 04:10:00,
2013-05-25 00:25:00,43.9,43.6,30.05,West,270,0.0,-999.0,99,-99.99,,,0.00,Acu-Link.com,2013-05-25 04:25:00,
2013-05-25 00:40:00,44.1,43.8,30.06,SW,225,0.0,-999.0,99,-99.99,,,0.00,Acu-Link.com,2013-05-25 04:40:00,
2013-05-25 00:55:00,43.7,43.4,30.05,West,270,0.0,-999.0,99,-99.99,,,0.00,Acu-Link.com,2013-05-25 04:55:00,
2013-05-25 01:10:00,43.5,43.2,30.05,WSW,247,1.7,-999.0,99,-99.99,,,0.00,Acu-Link.com,2013-05-25 05:10:00,
2013-05-25 01:25:00,43.5,43.2,30.05,SSW,202,0.0,-999.0,99,-99.99,,,0.00,Acu-Link.com,2013-05-25 05:25:00,
2013-05-25 01:41:00,43.2,42.9,30.06,SW,225,0.0,-999.0,99,-99.99,,,0.00,Acu-Link.com,2013-05-25 05:41:00,
2013-05-25 01:56:00,43.0,42.7,30.06,West,270,0.0,-999.0,99,-99.99,,,0.00,Acu-Link.com,2013-05-25 05:56:00,
2013-05-25 02:11:00,42.8,42.5,30.06,SW,225,0.0,-999.0,99,-99.99,,,0.00,Acu-Link.com,2013-05-25 06:11:00,
2013-05-25 02:26:00,41.9,41.6,30.05,SW,225,0.0,-999.0,99,-99.99,,,0.00,Acu-Link.com,2013-05-25 06:26:00,
2013-05-25 02:41:00,41.5,41.2,30.05,WSW,247,0.0,-999.0,99,-99.99,,,0.00,Acu-Link.com,2013-05-25 06:41:00,
2013-05-25 02:56:00,40.8,40.5,30.06,East,90,4.2,-999.0,99,-99.99,,,0.00,Acu-Link.com,2013-05-25 06:56:00,
2013-05-25 03:11:00,41.2,40.9,30.06,ESE,112,4.7,-999.0,99,-99.99,,,0.00,Acu-Link.com,2013-05-25 07:11:00,
2013-05-25 03:26:00,41.0,40.7,30.06,ESE,112,0.0,-999.0,99,-99.99,,,0.00,Acu-Link.com,2013-05-25 07:26:00,
2013-05-25 03:41:00,40.3,40.0,30.06,SW,225,0.0,-999.0,99,-99.99,,,0.00,Acu-Link.com,2013-05-25 07:41:00,
2013-05-25 03:57:00,39.6,39.3,30.06,NE,45,0.0,-999.0,99,-99.99,,,0.00,Acu-Link.com,2013-05-25 07:57:00,
2013-05-25 04:12:00,39.6,39.3,30.06,SSE,157,2.2,-999.0,99,-99.99,,,0.00,Acu-Link.com,2013-05-25 08:12:00,
2013-05-25 04:27:00,38.8,38.5,30.06,ESE,112,0.0,-999.0,99,-99.99,,,0.00,Acu-Link.com,2013-05-25 08:27:00,
2013-05-25 04:42:00,39.2,38.9,30.06,SSE,157,1.7,-999.0,99,-99.99,,,0.00,Acu-Link.com,2013-05-25 08:42:00,
2013-05-25 04:57:00,39.2,38.9,30.06,ESE,112,0.0,-999.0,99,-99.99,,,0.00,Acu-Link.com,2013-05-25 08:57:00,
2013-05-25 05:13:00,39.0,38.7,30.06,ESE,112,1.1,-999.0,99,-99.99,,,0.00,Acu-Link.com,2013-05-25 09:13:00,
2013-05-25 05:28:00,38.8,38.5,30.06,SSE,157,1.1,-999.0,99,-99.99,,,0.00,Acu-Link.com,2013-05-25 09:28:00,
2013-05-25 05:43:00,38.7,38.4,30.07,ESE,112,0.0,-999.0,99,-99.99,,,0.00,Acu-Link.com,2013-05-25 09:43:00,
2013-05-25 05:58:00,38.7,38.4,30.08,SSE,157,0.0,-999.0,99,-99.99,,,0.00,Acu-Link.com,2013-05-25 09:58:00,
2013-05-25 06:13:00,38.3,38.0,30.09,SE,135,0.0,-999.0,99,-99.99,,,0.00,Acu-Link.com,2013-05-25 10:13:00,
2013-05-25 06:29:00,37.8,37.5,30.10,SE,135,0.0,-999.0,99,-99.99,,,0.00,Acu-Link.com,2013-05-25 10:29:00,
2013-05-25 06:44:00,39.6,39.3,30.10,SE,135,0.0,-999.0,99,-99.99,,,0.00,Acu-Link.com,2013-05-25 10:44:00,
2013-05-25 06:59:00,41.7,41.4,30.11,SSE,157,0.0,-999.0,99,-99.99,,,0.00,Acu-Link.com,2013-05-25 10:59:00,
2013-05-25 07:14:00,45.1,44.0,30.11,SSE,157,0.0,-999.0,96,-99.99,,,0.00,Acu-Link.com,2013-05-25 11:14:00,
2013-05-25 07:29:00,48.9,46.4,30.11,SW,225,1.1,-999.0,91,-99.99,,,0.00,Acu-Link.com,2013-05-25 11:29:00,
2013-05-25 07:44:00,52.5,47.8,30.12,SSE,157,0.0,-999.0,84,-99.99,,,0.00,Acu-Link.com,2013-05-25 11:44:00,
2013-05-25 08:00:00,52.7,44.6,30.12,SE,135,4.7,-999.0,74,-99.99,,,0.00,Acu-Link.com,2013-05-25 12:00:00,
2013-05-25 08:15:00,52.7,43.6,30.12,SSE,157,4.2,-999.0,71,-99.99,,,0.00,Acu-Link.com,2013-05-25 12:15:00,
2013-05-25 08:30:00,56.3,45.9,30.10,ESE,112,4.7,-999.0,68,-99.99,,,0.00,Acu-Link.com,2013-05-25 12:30:00,
2013-05-25 08:45:00,56.1,44.9,30.09,SSE,157,5.3,-999.0,66,-99.99,,,0.00,Acu-Link.com,2013-05-25 12:45:00,
2013-05-25 09:00:00,57.0,45.4,30.10,SSE,157,5.3,-999.0,65,-99.99,,,0.00,Acu-Link.com,2013-05-25 13:00:00,
2013-05-25 09:15:00,57.7,45.2,30.11,ESE,112,3.7,-999.0,63,-99.99,,,0.00,Acu-Link.com,2013-05-25 13:15:00,
2013-05-25 09:30:00,55.6,44.4,30.11,SE,135,9.4,-999.0,66,-99.99,,,0.00,Acu-Link.com,2013-05-25 13:30:00,
2013-05-25 09:45:00,56.1,43.7,30.11,SSE,157,7.8,-999.0,63,-99.99,,,0.00,Acu-Link.com,2013-05-25 13:45:00,
2013-05-25 10:00:00,57.2,45.1,30.10,SSW,202,6.3,-999.0,64,-99.99,,,0.00,Acu-Link.com,2013-05-25 14:00:00,
2013-05-25 10:16:00,59.2,44.9,30.11,East,90,3.7,-999.0,59,-99.99,,,0.00,Acu-Link.com,2013-05-25 14:16:00,
2013-05-25 10:31:00,57.4,44.9,30.10,ESE,112,1.7,-999.0,63,-99.99,,,0.00,Acu-Link.com,2013-05-25 14:31:00,
2013-05-25 10:46:00,57.4,46.5,30.11,NNE,22,2.2,-999.0,67,-99.99,,,0.00,Acu-Link.com,2013-05-25 14:46:00,
2013-05-25 11:01:00,59.0,46.4,30.10,ESE,112,2.7,-999.0,63,-99.99,,,0.00,Acu-Link.com,2013-05-25 15:01:00,
2013-05-25 11:16:00,59.2,44.9,30.10,NNE,22,2.7,-999.0,59,-99.99,,,0.00,Acu-Link.com,2013-05-25 15:16:00,
2013-05-25 11:31:00,62.6,48.5,30.10,North,0,3.7,-999.0,60,-99.99,,,0.00,Acu-Link.com,2013-05-25 15:31:00,
2013-05-25 11:46:00,60.4,45.1,30.11,ENE,67,3.2,-999.0,57,-99.99,,,0.00,Acu-Link.com,2013-05-25 15:46:00,
2013-05-25 12:01:00,60.3,45.5,30.12,NE,45,3.7,-999.0,58,-99.99,,,0.00,Acu-Link.com,2013-05-25 16:01:00,
2013-05-25 12:16:00,61.2,46.3,30.11,WNW,292,2.2,-999.0,58,-99.99,,,0.00,Acu-Link.com,2013-05-25 16:16:00,
2013-05-25 12:32:00,62.4,45.0,30.10,NW,315,2.2,-999.0,53,-99.99,,,0.00,Acu-Link.com,2013-05-25 16:32:00,
2013-05-25 12:47:00,63.9,44.9,30.10,SSE,157,4.2,-999.0,50,-99.99,,,0.00,Acu-Link.com,2013-05-25 16:47:00,
2013-05-25 13:02:00,61.5,44.7,30.08,SSE,157,3.7,-999.0,54,-99.99,,,0.00,Acu-Link.com,2013-05-25 17:02:00,
2013-05-25 13:17:00,62.6,45.2,30.07,West,270,3.7,-999.0,53,-99.99,,,0.00,Acu-Link.com,2013-05-25 17:17:00,
2013-05-25 13:32:00,63.5,45.0,30.07,SE,135,2.2,-999.0,51,-99.99,,,0.00,Acu-Link.com,2013-05-25 17:32:00,
2013-05-25 13:47:00,64.2,47.2,30.07,SSW,202,2.2,-999.0,54,-99.99,,,0.00,Acu-Link.com,2013-05-25 17:47:00,
2013-05-25 14:02:00,67.5,48.2,30.06,NNE,22,3.2,-999.0,50,-99.99,,,0.00,Acu-Link.com,2013-05-25 18:02:00,
2013-05-25 14:17:00,65.3,44.5,30.05,SW,225,1.7,-999.0,47,-99.99,,,0.00,Acu-Link.com,2013-05-25 18:17:00,
2013-05-25 14:32:00,64.8,42.4,30.05,West,270,1.7,-999.0,44,-99.99,,,0.00,Acu-Link.com,2013-05-25 18:32:00,
2013-05-25 14:48:00,66.7,48.0,30.05,NE,45,3.2,-999.0,51,-99.99,,,0.00,Acu-Link.com,2013-05-25 18:48:00,
2013-05-25 15:03:00,65.3,45.1,30.04,SSW,202,1.1,-999.0,48,-99.99,,,0.00,Acu-Link.com,2013-05-25 19:03:00,
2013-05-25 15:18:00,64.9,45.3,30.04,SW,225,1.7,-999.0,49,-99.99,,,0.00,Acu-Link.com,2013-05-25 19:18:00,
2013-05-25 15:33:00,64.6,44.5,30.04,West,270,2.2,-999.0,48,-99.99,,,0.00,Acu-Link.com,2013-05-25 19:33:00,
2013-05-25 15:48:00,65.3,45.1,30.04,SW,225,1.7,-999.0,48,-99.99,,,0.00,Acu-Link.com,2013-05-25 19:48:00,
2013-05-25 16:03:00,64.9,43.0,30.03,West,270,2.7,-999.0,45,-99.99,,,0.00,Acu-Link.com,2013-05-25 20:03:00,
2013-05-25 16:18:00,65.8,46.1,30.03,North,0,2.7,-999.0,49,-99.99,,,0.00,Acu-Link.com,2013-05-25 20:18:00,
2013-05-25 16:33:00,65.8,42.7,30.02,West,270,3.2,-999.0,43,-99.99,,,0.00,Acu-Link.com,2013-05-25 20:33:00,
2013-05-25 16:48:00,65.8,44.4,30.01,South,180,2.2,-999.0,46,-99.99,,,0.00,Acu-Link.com,2013-05-25 20:48:00,
2013-05-25 17:04:00,64.8,45.7,30.02,NE,45,2.7,-999.0,50,-99.99,,,0.00,Acu-Link.com,2013-05-25 21:04:00,
2013-05-25 17:19:00,64.8,47.8,30.00,NNW,337,2.7,-999.0,54,-99.99,,,0.00,Acu-Link.com,2013-05-25 21:19:00,
2013-05-25 17:34:00,64.9,46.3,30.00,WNW,292,2.2,-999.0,51,-99.99,,,0.00,Acu-Link.com,2013-05-25 21:34:00,
2013-05-25 17:49:00,64.4,46.9,30.01,North,0,2.7,-999.0,53,-99.99,,,0.00,Acu-Link.com,2013-05-25 21:49:00,
2013-05-25 18:04:00,64.8,46.8,30.00,North,0,3.2,-999.0,52,-99.99,,,0.00,Acu-Link.com,2013-05-25 22:04:00,
2013-05-25 18:19:00,65.8,46.1,30.00,WNW,292,2.7,-999.0,49,-99.99,,,0.00,Acu-Link.com,2013-05-25 22:19:00,
2013-05-25 18:34:00,66.2,47.5,30.00,West,270,0.0,-999.0,51,-99.99,,,0.00,Acu-Link.com,2013-05-25 22:34:00,
2013-05-25 18:49:00,66.2,48.6,30.00,NW,315,1.1,-999.0,53,-99.99,,,0.00,Acu-Link.com,2013-05-25 22:49:00,
2013-05-25 19:04:00,65.3,48.7,30.00,WSW,247,0.0,-999.0,55,-99.99,,,0.00,Acu-Link.com,2013-05-25 23:04:00,
2013-05-25 19:19:00,64.6,49.5,29.99,West,270,0.0,-999.0,58,-99.99,,,0.00,Acu-Link.com,2013-05-25 23:19:00,
2013-05-25 19:35:00,63.9,49.7,29.99,SW,225,0.0,-999.0,60,-99.99,,,0.00,Acu-Link.com,2013-05-25 23:35:00,
2013-05-25 19:50:00,63.3,50.9,29.98,NNE,22,0.0,-999.0,64,-99.99,,,0.00,Acu-Link.com,2013-05-25 23:50:00,
2013-05-25 20:05:00,62.1,50.2,29.96,ESE,112,0.0,-999.0,65,-99.99,,,0.00,Acu-Link.com,2013-05-26 00:05:00,
2013-05-25 20:20:00,62.1,48.9,29.95,West,270,0.0,-999.0,62,-99.99,,,0.00,Acu-Link.com,2013-05-26 00:20:00,
2013-05-25 20:35:00,60.4,53.2,29.94,SE,135,0.0,-999.0,77,-99.99,,,0.00,Acu-Link.com,2013-05-26 00:35:00,
2013-05-25 20:50:00,59.4,52.2,29.95,South,180,0.0,-999.0,77,-99.99,,,0.00,Acu-Link.com,2013-05-26 00:50:00,
2013-05-25 21:05:00,58.3,52.5,29.95,SSE,157,0.0,-999.0,81,-99.99,,,0.00,Acu-Link.com,2013-05-26 01:05:00,
2013-05-25 21:20:00,57.7,51.9,29.96,ENE,67,0.0,-999.0,81,-99.99,,,0.00,Acu-Link.com,2013-05-26 01:20:00,
2013-05-25 21:35:00,56.8,52.7,29.96,South,180,1.1,-999.0,86,-99.99,,,0.00,Acu-Link.com,2013-05-26 01:35:00,
2013-05-25 21:51:00,56.7,53.5,29.98,ENE,67,0.0,-999.0,89,-99.99,,,0.00,Acu-Link.com,2013-05-26 01:51:00,
2013-05-25 22:06:00,56.3,53.1,29.98,WSW,247,0.0,-999.0,89,-99.99,,,0.00,Acu-Link.com,2013-05-26 02:06:00,
2013-05-25 22:21:00,55.9,53.6,29.98,SSE,157,0.0,-999.0,92,-99.99,,,0.00,Acu-Link.com,2013-05-26 02:21:00,
2013-05-25 22:36:00,55.8,54.1,29.99,SSE,157,0.0,-999.0,94,-99.99,,,0.00,Acu-Link.com,2013-05-26 02:36:00,
2013-05-25 22:51:00,55.6,53.9,30.00,East,90,0.0,-999.0,94,-99.99,,,0.00,Acu-Link.com,2013-05-26 02:51:00,
2013-05-25 23:06:00,55.4,53.7,30.00,ESE,112,0.0,-999.0,94,-99.99,,,0.00,Acu-Link.com,2013-05-26 03:06:00,
2013-05-25 23:21:00,55.4,53.7,30.00,South,180,0.0,-999.0,94,-99.99,,,0.00,Acu-Link.com,2013-05-26 03:21:00,
2013-05-25 23:36:00,55.4,52.5,30.01,NNW,337,0.0,-999.0,90,-99.99,,,0.00,Acu-Link.com,2013-05-26 03:36:00,
2013-05-25 23:51:00,55.6,53.6,30.00,SSE,157,0.0,-999.0,93,-99.99,,,0.00,Acu-Link.com,2013-05-26 03:51:00,